User: anonymous   Login
Location: Eimen
(51.8766°N, 9.7806°E)
Time: 08:56:35
(UTC+00:00)
Language:

Resurs 1-4 Rocket - Orbit

View from above orbital plane
View from above orbital plane
View from above satellite
View from above satellite

Ground track
Ground track

The orbit data is extracted from the following two-line orbital elements,

1 25400U 98043G   24203.78826203  .00000231  00000-0  11609-3 0  9998
2 25400  98.7453 144.7694 0009001 308.4665  51.5706 14.25771992354065
Epoch (UTC): 21 July 2024 18:55:05
Eccentricity: 0.0009001
inclination: 98.7453°
perigee height: 799 km
apogee height: 812 km
right ascension of ascending node: 144.7694°
argument of perigee: 308.4665°
revolutions per day: 14.25771992
mean anomaly at epoch: 51.5706°
orbit number at epoch: 35406

The dashed part of the orbit path shows where the satellite is in the earth's shadow,  

DLR